This demonstration page uses our WeatherBlox Daily Observations layout. Learn more.

Left ArrowRight Arrow

39.08367, -84.50855

Hourly Observations for March 25, 2020

Temp ( °F °C ) Dew Point ( °F °C ) Humidity (%) Winds ( mph kmh ) Pressure ( in mb ) Visibility ( mi km ) Precip ( " mm )
12:53 am 00:53 Cloudy with Light Rain 45 7.2 41 5 86 86 NE 8 13 29.87 1012 7 11 0.03 0.76
1:53 am 01:53 Cloudy 45 7.2 40 4.4 83 83 N 7 11 29.88 1012 10 16 0.00 0.00
2:53 am 02:53 Clear 42 5.6 39 3.9 89 89 NNW 7 11 29.89 1012 9 14 N/A
3:53 am 03:53 Partly Cloudy 42 5.6 39 3.9 89 89 N 7 11 29.89 1012 8 13 N/A
4:53 am 04:53 Cloudy 43 6.1 40 4.4 89 89 N 6 9 29.89 1012 7 11 N/A
5:53 am 05:53 Cloudy 43 6.1 40 4.4 89 89 N 3 6 29.91 1013 7 11 N/A
6:53 am 06:53 Mostly Clear with Mist and Fog 40 4.4 38 3.3 93 93 NNW 5 7 29.95 1014 6 10 N/A
7:17 am 07:17 Mostly Cloudy with Mist and Fog 41 5 38 3.3 89 89 N 5 7 29.97 1015 6 10 N/A
7:53 am 07:53 Cloudy with Mist and Fog 42 5.6 38 3.3 85 85 N 7 11 29.97 1015 5 8 N/A
8:35 am 08:35 Mostly Cloudy with Mist and Fog 41 5 38 3.3 89 89 N N/A 30.01 1016 4 6 N/A
8:53 am 08:53 Partly Cloudy with Mist and Fog 43 6.1 39 3.9 86 86 NNW 6 9 30.00 1016 5 8 N/A
9:53 am 09:53 Hazy 46 7.8 39 3.9 77 77 NNE 3 6 30.01 1016 6 10 N/A
10:53 am 10:53 Sunny 49 9.4 41 5 74 74 VRB 3 6 30.01 1016 7 11 N/A
11:53 am 11:53 Sunny 53 11.7 43 6.1 69 69 VRB 3 6 30.00 1016 8 13 N/A
12:53 pm 12:53 Sunny 57 13.9 42 5.6 58 58 N N/A 30.00 1016 10 16 N/A
1:53 pm 13:53 Sunny 61 16.1 39 3.9 44 44 NW 5 7 29.99 1016 10 16 N/A
2:53 pm 14:53 Sunny 61 16.1 38 3.3 43 43 SW 3 6 29.98 1015 10 16 N/A
3:53 pm 15:53 Sunny 64 17.8 38 3.3 38 38 N N/A 29.96 1015 10 16 N/A
4:53 pm 16:53 Sunny 64 17.8 38 3.3 38 38 N N/A 29.95 1014 10 16 N/A
5:53 pm 17:53 Sunny 66 18.9 38 3.3 36 36 N N/A 29.93 1014 10 16 N/A
6:53 pm 18:53 Sunny 63 17.2 42 5.6 47 47 SW 3 6 29.93 1014 10 16 N/A
7:53 pm 19:53 Sunny 57 13.9 42 5.6 58 58 SSW 6 9 29.94 1014 10 16 N/A
8:53 pm 20:53 Clear 52 11.1 44 6.7 75 75 N N/A 29.96 1015 10 16 N/A
9:53 pm 21:53 Clear 45 7.2 42 5.6 90 90 SSW 3 6 29.98 1015 10 16 N/A
10:53 pm 22:53 Clear 48 8.9 43 6.1 83 83 N N/A 29.98 1015 10 16 N/A
11:53 pm 23:53 Clear 46 7.8 43 6.1 89 89 N N/A 29.97 1015 10 16 N/A

Powered by AerisWeather